DB5ZQ Weather Reports


time (UTC)temp
C
wind
direction
speed
KPH
gust
KPH
rain 1hr
cm
rain 24hr
cm
rain mn
cm
humidity
%
barometer
mb
20200227123121 6 67 0.0 6.4 0.00 0.00 0.00 84 979.7
20200227122621 6 104 0.0 4.8 0.00 0.00 0.00 84 980.0
20200227122120 5 210 0.0 9.7 0.00 0.00 0.00 84 980.2
20200227121620 5 303 8.0 8.0 0.00 0.00 0.00 84 980.4
20200227121120 5 358 0.0 9.7 0.00 0.00 0.00 84 980.6
20200227120620 5 230 0.0 9.7 0.00 0.00 0.00 84 980.8
20200227120119 5 30 6.4 12.9 0.00 0.00 0.00 84 981.0
20200227115619 5 313 0.0 8.0 0.00 0.00 0.00 84 981.2
20200227115119 5 67 1.6 14.5 0.00 0.00 0.00 84 981.3
20200227114618 5 66 9.7 16.1 0.00 0.00 0.00 83 981.5
20200227114118 6 323 1.6 12.9 0.00 0.00 0.00 83 981.7
20200227113618 6 36 6.4 14.5 0.00 0.00 0.00 83 981.8
20200227113118 6 2 6.4 14.5 0.00 0.00 0.00 81 981.9
20200227112617 6 43 6.4 11.3 0.00 0.00 0.00 80 981.9
20200227112117 6 120 4.8 14.5 0.00 0.00 0.00 79 982.1
20200227111617 6 50 3.2 9.7 0.00 0.00 0.00 79 982.2
20200227111117 6 257 3.2 9.7 0.00 0.00 0.00 78 982.4
20200227110616 6 248 0.0 9.7 0.00 0.00 0.00 77 982.5
20200227110116 6 279 3.2 14.5 0.00 0.00 0.00 76 982.8
20200227105616 6 82 6.4 12.9 0.00 0.00 0.00 76 982.9
20200227105115 6 22 4.8 9.7 0.00 0.00 0.00 75 983.0
20200227104615 6 127 1.6 11.3 0.00 0.00 0.00 74 983.2
20200227104115 6 66 4.8 12.9 0.00 0.00 0.00 74 983.3
20200227103614 6 28 6.4 17.7 0.00 0.00 0.00 73 983.5
20200227103114 6 88 0.0 14.5 0.00 0.00 0.00 75 983.6
20200227102614 6 109 3.2 12.9 0.00 0.00 0.00 75 983.8
20200227102114 6 56 1.6 9.7 0.00 0.00 0.00 76 984.0
20200227101613 6 39 3.2 17.7 0.00 0.00 0.00 76 984.2
20200227101113 6 115 0.0 14.5 0.00 0.00 0.00 77 984.2
20200227100613 6 18 9.7 12.9 0.00 0.00 0.00 77 984.5
20200227100112 6 50 3.2 4.8 0.00 0.00 0.00 77 984.6
20200227095612 6 19 1.6 12.9 0.00 0.00 0.00 77 984.8
20200227095112 6 199 4.8 12.9 0.00 0.00 0.00 77 984.8
20200227094612 6 40 1.6 8.0 0.00 0.00 0.00 78 985.0
20200227094111 6 98 1.6 9.7 0.00 0.00 0.00 79 985.1
20200227093611 6 37 0.0 6.4 0.00 0.00 0.00 80 985.2
20200227093111 5 53 0.0 11.3 0.00 0.00 0.00 80 985.4
20200227092611 5 5 6.4 9.7 0.00 0.00 0.00 80 985.5
20200227092110 5 85 6.4 14.5 0.00 0.00 0.00 79 985.6
20200227091610 5 144 4.8 14.5 0.00 0.00 0.00 79 985.8
20200227091110 6 40 1.6 8.0 0.00 0.00 0.00 79 985.8
20200227090609 6 14 0.0 11.3 0.00 0.00 0.00 79 985.9
20200227090109 6 206 0.0 11.3 0.00 0.00 0.00 79 986.0
20200227085609 5 2 1.6 11.3 0.00 0.00 0.00 80 986.2
20200227085109 5 43 1.6 9.7 0.00 0.00 0.00 79 986.3
20200227084608 5 16 4.8 14.5 0.00 0.00 0.00 80 986.5
20200227084108 5 91 3.2 9.7 0.00 0.00 0.00 79 986.6
20200227083608 5 77 3.2 12.9 0.00 0.00 0.00 79 986.7
20200227083107 5 45 4.8 12.9 0.00 0.00 0.00 79 986.8
20200227082607 6 37 1.6 8.0 0.00 0.00 0.00 79 986.9
20200227082107 6 351 0.0 12.9 0.00 0.00 0.00 79 986.9
20200227081607 6 68 0.0 6.4 0.00 0.00 0.00 79 986.9
20200227081106 5 45 0.0 12.9 0.00 0.00 0.00 79 987.0
20200227080606 6 78 4.8 9.7 0.00 0.00 0.00 80 987.1
20200227080106 5 11 1.6 8.0 0.00 0.00 0.00 79 987.2
20200227075606 5 113 1.6 9.7 0.00 0.00 0.00 79 987.2
20200227075105 5 170 0.0 12.9 0.00 0.00 0.00 80 987.2
20200227074605 5 130 0.0 6.4 0.00 0.00 0.00 80 987.3
20200227074105 5 26 0.0 8.0 0.00 0.00 0.00 80 987.4
20200227073604 5 66 3.2 9.7 0.00 0.00 0.00 80 987.5
20200227073104 5 66 0.0 11.3 0.00 0.00 0.00 80 987.5
20200227072604 5 50 4.8 17.7 0.00 0.00 0.00 80 987.6
20200227072103 5 78 4.8 12.9 0.00 0.00 0.00 80 987.6
20200227071604 5 19 8.0 11.3 0.00 0.00 0.00 80 987.6
20200227071103 5 7 3.2 11.3 0.00 0.00 0.00 80 987.6
20200227070603 5 12 8.0 8.0 0.00 0.00 0.00 81 987.6
20200227070103 5 28 1.6 12.9 0.00 0.00 0.00 82 987.5
20200227065603 5 338 0.0 11.3 0.00 0.00 0.00 82 987.6
20200227065102 5 125 1.6 14.5 0.00 0.00 0.00 82 987.6
20200227064601 5 274 0.0 11.3 0.00 0.00 0.00 82 987.5
20200227064101 5 338 4.8 12.9 0.00 0.00 0.00 82 987.5
20200227063601 5 35 3.2 12.9 0.00 0.00 0.00 82 987.6
20200227063101 5 358 4.8 9.7 0.00 0.00 0.00 82 987.7
20200227062600 5 112 0.0 11.3 0.00 0.00 0.00 82 987.8
20200227062100 5 358 9.7 14.5 0.00 0.00 0.00 82 987.8
20200227061600 5 23 8.0 12.9 0.00 0.00 0.00 82 987.8
20200227061100 5 16 9.7 14.5 0.00 0.00 0.00 82 987.8
20200227060559 5 47 4.8 11.3 0.00 0.00 0.00 82 988.0
20200227060059 5 15 3.2 9.7 0.00 0.00 0.00 82 988.0
20200227055559 5 77 3.2 9.7 0.00 0.00 0.00 82 988.1
20200227055059 5 67 3.2 11.3 0.00 0.00 0.00 82 988.2
20200227054558 5 19 0.0 12.9 0.00 0.00 0.00 82 988.3
20200227054058 5 11 6.4 9.7 0.00 0.00 0.00 82 988.4
20200227053558 5 30 0.0 11.3 0.00 0.00 0.00 82 988.4
20200227053057 5 74 1.6 12.9 0.00 0.00 0.00 82 988.5
20200227052557 5 358 9.7 12.9 0.00 0.00 0.00 81 988.5
20200227052057 5 39 6.4 12.9 0.00 0.00 0.00 81 988.6
20200227051556 5 30 3.2 12.9 0.00 0.00 0.00 82 988.6
20200227051056 5 12 3.2 9.7 0.00 0.00 0.00 81 988.6
20200227050556 5 46 0.0 12.9 0.00 0.00 0.00 81 988.6
20200227050056 5 25 3.2 9.7 0.00 0.00 0.00 82 988.7
20200227045555 5 5 8.0 8.0 0.00 0.00 0.00 81 988.7
20200227045055 5 59 1.6 6.4 0.00 0.00 0.00 82 988.8
20200227044555 5 23 1.6 9.7 0.00 0.00 0.00 82 988.7
20200227044054 5 37 4.8 11.3 0.00 0.00 0.00 82 988.8
20200227043554 5 11 0.0 3.2 0.00 0.00 0.00 82 988.8
20200227043054 5 50 0.0 4.8 0.00 0.00 0.00 83 988.9
20200227042554 5 5 0.0 8.0 0.00 0.00 0.00 83 988.9
20200227042053 5 50 0.0 8.0 0.00 0.00 0.00 82 988.8
20200227041553 5 29 1.6 11.3 0.00 0.00 0.00 83 988.8
20200227041053 5 56 0.0 8.0 0.00 0.00 0.00 82 988.9
20200227040552 5 133 1.6 8.0 0.00 0.00 0.00 82 988.9
20200227040052 5 50 0.0 6.4 0.00 0.00 0.00 82 988.9
20200227035552 5 35 3.2 8.0 0.00 0.00 0.00 82 988.9
20200227035052 5 49 0.0 9.7 0.00 0.00 0.00 82 989.0
20200227034551 5 42 0.0 6.4 0.00 0.00 0.00 82 989.0
20200227034051 5 39 0.0 4.8 0.00 0.00 0.00 82 989.1
20200227033551 5 300 0.0 11.3 0.00 0.00 0.00 82 989.1
20200227033051 5 73 0.0 9.7 0.00 0.00 0.00 82 989.1
20200227032550 5 64 0.0 8.0 0.00 0.00 0.00 82 989.2
20200227032050 5 54 3.2 8.0 0.00 0.00 0.00 82 989.2
20200227031550 5 354 1.6 8.0 0.00 0.00 0.00 82 989.1
20200227031049 5 150 1.6 11.3 0.00 0.00 0.00 82 989.1
20200227030549 5 45 0.0 4.8 0.00 0.00 0.00 82 989.2
20200227030049 5 0 1.6 4.8 0.00 0.00 0.00 82 989.2
20200227025549 5 104 1.6 8.0 0.00 0.00 0.00 82 989.1
20200227025048 5 47 0.0 8.0 0.00 0.00 0.00 82 989.0
20200227024548 5 28 1.6 9.7 0.00 0.00 0.00 82 989.0
20200227024048 5 32 6.4 11.3 0.00 0.00 0.00 82 989.1
20200227023547 5 11 4.8 11.3 0.00 0.00 0.00 81 989.1
20200227023047 5 14 0.0 9.7 0.00 0.00 0.00 81 989.2
20200227022547 4 36 8.0 11.3 0.00 0.00 0.00 81 989.3
20200227022047 5 192 1.6 11.3 0.00 0.00 0.00 81 989.3
20200227021546 5 135 3.2 9.7 0.00 0.00 0.00 80 989.4
20200227021046 5 43 3.2 9.7 0.00 0.00 0.00 80 989.5
20200227020546 5 18 3.2 8.0 0.00 0.00 0.00 80 989.5
20200227020045 5 81 1.6 6.4 0.00 0.00 0.00 79 989.6
20200227015545 5 345 0.0 11.3 0.00 0.00 0.00 79 989.6
20200227015045 5 7 0.0 4.8 0.00 0.00 0.00 79 989.6
20200227014545 5 63 1.6 11.3 0.00 0.00 0.00 79 989.5
20200227014044 5 78 0.0 11.3 0.00 0.00 0.00 78 989.6
20200227013544 5 29 3.2 12.9 0.00 0.00 0.00 77 989.5
20200227013044 5 337 0.0 11.3 0.00 0.00 0.00 77 989.6
20200227012544 5 43 0.0 11.3 0.00 0.00 0.00 77 989.6
20200227012043 5 30 9.7 9.7 0.00 0.00 0.00 77 989.5
20200227011543 5 11 1.6 9.7 0.00 0.00 0.00 77 989.5
20200227011043 5 29 0.0 8.0 0.00 0.00 0.00 77 989.5
20200227010542 5 338 1.6 8.0 0.00 0.00 0.00 76 989.5
20200227010042 5 29 0.0 11.3 0.00 0.00 0.00 76 989.5
20200227005542 5 358 3.2 9.7 0.00 0.00 0.00 77 989.5
20200227005041 5 19 4.8 8.0 0.00 0.00 0.00 76 989.5
20200227004541 5 73 0.0 8.0 0.00 0.00 0.00 76 989.4
20200227004041 5 70 1.6 9.7 0.00 0.00 0.00 77 989.4
20200227003541 5 50 1.6 14.5 0.00 0.00 0.00 77 989.4
20200227003040 5 105 3.2 9.7 0.00 0.00 0.00 77 989.5
20200227002540 5 279 0.0 8.0 0.00 0.00 0.00 77 989.6
20200227002040 5 358 4.8 8.0 0.00 0.00 0.00 77 989.5
20200227001539 5 19 3.2 4.8 0.00 0.00 0.00 77 989.4
20200227001039 5 236 0.0 9.7 0.00 0.00 0.00 77 989.4
20200227000539 5 32 3.2 8.0 0.00 0.00 0.00 77 989.4
20200227000039 5 36 1.6 9.7 0.00 0.00 0.00 77 989.4
20200226235538 5 5 4.8 8.0 0.00 0.00 0.00 77 989.4
20200226235038 5 28 1.6 11.3 0.00 0.00 0.00 77 989.3
20200226234538 5 22 0.0 11.3 0.00 0.00 0.00 77 989.3
20200226234037 5 15 6.4 12.9 0.00 0.00 0.00 77 989.3
20200226233537 5 49 3.2 11.3 0.00 0.00 0.00 77 989.2
20200226233037 5 32 3.2 11.3 0.00 0.00 0.00 77 989.2
20200226232537 5 343 3.2 11.3 0.00 0.00 0.00 77 989.3
20200226232036 5 33 6.4 12.9 0.00 0.00 0.00 77 989.2
20200226231536 5 46 3.2 11.3 0.00 0.00 0.00 77 989.2
20200226231036 5 25 9.7 12.9 0.00 0.00 0.00 77 989.2
20200226230535 5 25 4.8 11.3 0.00 0.00 0.00 77 989.2
20200226230035 5 53 4.8 9.7 0.00 0.00 0.00 77 989.2
20200226225535 5 35 4.8 14.5 0.00 0.00 0.00 77 989.1
20200226225035 5 358 8.0 11.3 0.00 0.00 0.00 78 989.1
20200226224534 5 15 9.7 9.7 0.00 0.00 0.00 77 989.1
20200226224034 5 57 8.0 11.3 0.00 0.00 0.00 77 989.1
20200226223534 5 74 0.0 9.7 0.00 0.00 0.00 77 989.1
20200226223033 5 358 0.0 6.4 0.00 0.00 0.00 77 989.1
20200226222533 5 22 4.8 8.0 0.00 0.00 0.00 76 989.0
20200226222033 5 40 3.2 9.7 0.00 0.00 0.00 76 989.0
20200226221533 5 295 1.6 9.7 0.00 0.00 0.00 76 989.0
20200226221032 5 52 3.2 11.3 0.00 0.00 0.00 76 989.0
20200226220532 5 175 0.0 6.4 0.00 0.00 0.00 76 988.9
20200226220032 5 33 0.0 8.0 0.00 0.00 0.00 76 988.9
20200226215532 5 299 3.2 8.0 0.00 0.00 0.00 76 988.9
20200226215031 5 15 4.8 11.3 0.00 0.00 0.00 76 988.9
20200226214531 5 19 4.8 9.7 0.00 0.00 0.00 76 988.9
20200226214031 5 67 8.0 8.0 0.00 0.00 0.00 76 988.9
20200226213530 5 33 0.0 8.0 0.00 0.00 0.00 76 988.9
20200226213030 5 33 4.8 9.7 0.00 0.00 0.00 76 988.9
20200226212530 5 137 1.6 9.7 0.00 0.00 0.00 76 988.8
20200226212030 5 206 0.0 12.9 0.00 0.00 0.00 76 988.7
20200226211529 5 253 1.6 11.3 0.00 0.00 0.00 76 988.7
20200226211029 6 26 0.0 8.0 0.00 0.00 0.00 76 988.7
20200226210529 6 14 0.0 6.4 0.00 0.00 0.00 75 988.7
20200226210028 6 64 3.2 4.8 0.00 0.00 0.00 76 988.7
20200226205528 6 50 0.0 4.8 0.00 0.00 0.00 75 988.5
20200226205028 5 16 3.2 4.8 0.00 0.00 0.00 75 988.5
20200226204528 6 18 0.0 6.4 0.00 0.00 0.00 75 988.5
20200226204027 6 18 0.0 4.8 0.00 0.00 0.00 76 988.4
20200226203527 6 56 1.6 6.4 0.00 0.00 0.00 76 988.4
20200226203027 5 36 3.2 4.8 0.00 0.00 0.00 75 988.3
20200226202526 5 52 1.6 9.7 0.00 0.00 0.00 75 988.3
20200226202026 5 25 3.2 6.4 0.00 0.00 0.00 75 988.2
20200226201526 5 29 1.6 8.0 0.00 0.00 0.00 75 988.1
20200226201026 6 26 0.0 9.7 0.00 0.00 0.00 74 988.0
20200226200525 6 26 0.0 6.4 0.00 0.00 0.00 74 988.1
20200226200025 6 45 1.6 8.0 0.00 0.00 0.00 74 987.9
20200226195525 6 35 0.0 6.4 0.00 0.00 0.00 74 987.9
20200226195024 6 8 0.0 8.0 0.00 0.00 0.00 74 987.9
20200226194524 6 358 6.4 8.0 0.00 0.00 0.00 73 987.9
20200226194024 6 19 0.0 3.2 0.00 0.00 0.00 73 987.8
20200226193524 6 0 0.0 4.8 0.00 0.00 0.00 73 987.8
20200226193023 6 18 0.0 4.8 0.00 0.00 0.00 73 987.8
20200226192523 6 29 0.0 8.0 0.00 0.00 0.00 73 987.8
20200226192023 6 16 0.0 8.0 0.00 0.00 0.00 73 987.7
20200226191523 6 15 0.0 3.2 0.00 0.00 0.00 74 987.6
20200226191022 6 9 0.0 6.4 0.00 0.00 0.00 73 987.5
20200226190522 6 32 0.0 3.2 0.00 0.00 0.00 73 987.4
20200226190022 6 63 0.0 4.8 0.00 0.00 0.00 73 987.4
20200226185521 6 150 0.0 8.0 0.00 0.00 0.00 73 987.4
20200226185021 6 326 3.2 12.9 0.00 0.00 0.00 72 987.5
20200226184521 6 35 0.0 6.4 0.00 0.00 0.00 73 987.4
20200226184020 6 63 1.6 3.2 0.00 0.00 0.00 74 987.3
20200226183520 6 7 0.0 3.2 0.00 0.00 0.00 75 987.3
20200226183020 6 26 0.0 1.6 0.00 0.00 0.00 75 987.2
20200226182520 6 348 0.0 3.2 0.00 0.00 0.00 75 987.1
20200226182019 6 154 0.0 4.8 0.00 0.00 0.00 75 987.0
20200226181519 6 30 0.0 6.4 0.00 0.00 0.00 75 986.9
20200226181019 6 30 1.6 8.0 0.00 0.00 0.00 74 986.8
20200226180519 6 187 0.0 4.8 0.00 0.00 0.00 75 986.6
20200226180018 6 30 0.0 4.8 0.00 0.00 0.00 75 986.5
20200226175518 6 59 0.0 4.8 0.00 0.00 0.00 75 986.4
20200226175018 6 22 1.6 9.7 0.00 0.00 0.00 75 986.4
20200226174517 6 49 0.0 4.8 0.00 0.00 0.00 78 986.3
20200226174017 6 126 0.0 0.0 0.00 0.00 0.00 78 986.1
20200226173517 6 126 0.0 1.6 0.00 0.00 0.00 79 986.0
20200226173016 6 126 0.0 0.0 0.00 0.00 0.00 79 985.9
20200226172516 6 126 0.0 0.0 0.00 0.00 0.00 79 985.9
20200226172016 6 126 0.0 0.0 0.00 0.00 0.00 79 985.8
20200226171516 6 126 0.0 0.0 0.00 0.00 0.00 79 985.8
20200226171015 6 126 0.0 0.0 0.00 0.00 0.00 80 985.7
20200226170515 6 126 0.0 0.0 0.00 0.00 0.00 79 985.7
20200226170015 6 157 0.0 0.0 0.00 0.00 0.00 79 985.7
20200226165515 6 157 0.0 1.6 0.00 0.00 0.00 80 985.6
20200226165014 6 158 0.0 1.6 0.00 0.00 0.00 80 985.5
20200226164514 6 59 0.0 3.2 0.00 0.00 0.00 80 985.6
20200226164014 6 139 1.6 8.0 0.00 0.00 0.00 79 985.5
20200226163513 6 9 3.2 12.9 0.00 0.00 0.00 77 985.5
20200226163014 7 163 0.0 3.2 0.00 0.00 0.00 76 985.3
20200226162513 6 92 0.0 8.0 0.00 0.00 0.00 76 985.1
20200226162013 7 26 0.0 3.2 0.00 0.00 0.00 76 985.0
20200226161512 6 158 0.0 11.3 0.00 0.00 0.00 77 985.1
20200226161013 7 18 0.0 0.0 0.00 0.00 0.00 77 985.0
20200226160512 7 18 0.0 3.2 0.00 0.00 0.00 76 985.0
20200226160011 7 9 0.0 8.0 0.00 0.00 0.00 76 984.9
20200226155511 7 19 0.0 9.7 0.00 0.00 0.00 76 984.9
20200226155011 7 46 3.2 16.1 0.00 0.00 0.00 75 984.9
20200226154511 7 19 1.6 12.9 0.00 0.00 0.00 74 984.8
20200226154010 7 165 8.0 11.3 0.00 0.00 0.00 74 984.7
20200226153510 7 137 3.2 8.0 0.00 0.00 0.00 73 984.6
20200226153010 7 70 0.0 12.9 0.00 0.00 0.00 73 984.5
20200226152509 7 132 0.0 8.0 0.00 0.00 0.00 74 984.4
20200226152009 7 125 1.6 4.8 0.00 0.00 0.00 74 984.3
20200226151509 7 11 0.0 4.8 0.00 0.00 0.00 74 984.2
20200226151009 7 113 0.0 6.4 0.00 0.00 0.00 77 984.1
20200226150508 7 67 1.6 12.9 0.00 0.00 0.00 77 984.0
20200226150008 7 188 6.4 12.9 0.00 0.00 0.00 75 984.1
20200226145508 7 191 4.8 14.5 0.00 0.00 0.00 74 983.9
20200226145007 7 188 11.3 14.5 0.00 0.00 0.00 72 983.9
20200226144507 7 105 3.2 11.3 0.00 0.00 0.00 71 983.8
20200226144007 7 104 3.2 12.9 0.00 0.00 0.00 72 983.6
20200226143507 7 115 3.2 9.7 0.00 0.00 0.00 77 983.6
20200226143006 6 182 0.0 11.3 0.00 0.00 0.00 78 983.6
20200226142506 6 74 3.2 12.9 0.00 0.00 0.00 77 983.3
20200226142006 7 82 3.2 14.5 0.00 0.00 0.00 74 983.2
20200226141505 7 12 6.4 12.9 0.00 0.00 0.00 74 983.1
20200226141005 7 64 6.4 11.3 0.00 0.00 0.00 73 983.0
20200226140505 7 315 4.8 12.9 0.00 0.00 0.00 71 982.9
20200226140005 7 338 0.0 11.3 0.00 0.00 0.00 69 982.8
20200226135504 7 19 4.8 11.3 0.00 0.00 0.00 67 982.7
20200226135004 7 46 3.2 12.9 0.00 0.00 0.00 66 982.5
20200226134504 8 37 3.2 8.0 0.00 0.00 0.00 67 982.7
20200226134004 8 175 3.2 3.2 0.00 0.00 0.00 69 982.5
20200226133503 7 66 1.6 4.8 0.00 0.00 0.00 68 982.4
20200226133003 7 104 4.8 6.4 0.00 0.00 0.00 70 982.4
20200226132503 7 178 1.6 12.9 0.00 0.00 0.00 70 982.4
20200226132003 7 84 9.7 11.3 0.00 0.00 0.00 69 982.3
20200226131502 7 12 4.8 12.9 0.00 0.00 0.00 72 982.3
20200226131002 6 50 0.0 11.3 0.00 0.00 0.00 74 982.2
20200226130501 6 212 0.0 8.0 0.00 0.00 0.00 76 982.2
20200226130001 6 120 3.2 16.1 0.00 0.00 0.00 75 982.1
20200226125501 6 158 4.8 12.9 0.00 0.00 0.00 75 982.1
20200226125001 6 4 6.4 14.5 0.00 0.00 0.00 74 981.9
20200226124500 6 185 9.7 20.9 0.00 0.00 0.00 74 981.9
20200226124000 6 113 0.0 12.9 0.00 0.00 0.00 74 981.8
20200226123500 6 153 3.2 8.0 0.00 0.00 0.00 75 981.8